This is the latest recevied weather packets stored in our database for station/object WY7EM. If no packets are shown the sender has not sent any weather packets the latest 10 day(s).
| Time | Temp. | Humidity | Pressure | Rain* | Wind** | Luminosity | Snow |
|---|---|---|---|---|---|---|---|
| 1777820339 | 15.56° C | 27% | 1017.1 hPa | 0 mm | - | 166 W/m² | - |
| 1777820037 | 15° C | 29% | 1017.1 hPa | 0 mm | - | 114 W/m² | - |
| 1777819734 | 15.56° C | 28% | 1017.2 hPa | 0 mm | - | 88 W/m² | - |
| 1777819432 | 15.56° C | 28% | 1017.3 hPa | 0 mm | - | 87 W/m² | - |
| 1777819129 | 15.56° C | 28% | 1017.2 hPa | 0 mm | - | 91 W/m² | - |
| 1777818826 | 15.56° C | 29% | 1017 hPa | 0 mm | - | 109 W/m² | - |
| 1777818522 | 15.56° C | 28% | 1017.1 hPa | 0 mm | - | 122 W/m² | - |
| 1777818219 | 15.56° C | 30% | 1017.1 hPa | 0 mm | - | 131 W/m² | - |
| 1777817915 | 15.56° C | 29% | 1017.1 hPa | 0 mm | - | 118 W/m² | - |
| 1777817613 | 15.56° C | 28% | 1017.2 hPa | 0 mm | - | 111 W/m² | - |
| 1777817309 | 15.56° C | 28% | 1017.1 hPa | 0 mm | - | 109 W/m² | - |
| 1777817007 | 15° C | 29% | 1016.8 hPa | 0 mm | - | 98 W/m² | - |
| 1777816702 | 14.44° C | 31% | 1016.6 hPa | 0 mm | - | 74 W/m² | - |
| 1777816400 | 15° C | 30% | 1016.8 hPa | 0 mm | - | 60 W/m² | - |
| 1777816098 | 15° C | 28% | 1016.6 hPa | 0 mm | - | 63 W/m² | - |
| 1777815795 | 15° C | 28% | 1016.9 hPa | 0 mm | - | 61 W/m² | - |
| 1777815493 | 14.44° C | 28% | 1016.8 hPa | 0 mm | - | 48 W/m² | - |
| 1777815190 | 14.44° C | 27% | 1016.3 hPa | 0 mm | - | 48 W/m² | - |
| 1777814886 | 14.44° C | 28% | 1016.5 hPa | 0 mm | - | 48 W/m² | - |
| 1777814582 | 14.44° C | 28% | 1016.4 hPa | 0 mm | - | 43 W/m² | - |
| 1777814280 | 14.44° C | 27% | 1016.4 hPa | 0 mm | - | 36 W/m² | - |
| 1777813976 | 13.89° C | 29% | 1016.6 hPa | 0 mm | - | 28 W/m² | - |
| 1777813674 | 13.33° C | 30% | 1016.4 hPa | 0 mm | - | 26 W/m² | - |
| 1777813371 | 13.33° C | 30% | 1016.4 hPa | 0 mm | - | 23 W/m² | - |
| 1777813068 | 13.33° C | 30% | 1016.4 hPa | 0 mm | - | 20 W/m² | - |
* Rain latest hour (hover to see other rain measurements)
** Current wind speed in m/s (hover to see current wind gust speed)